^^
Meteo Knjazevac Station Historical Data
Daily Summary for June 25, 2022 Units:  Metric    English   Both
Daily Weekly Monthly Yearly Custom
  High: Low: Average:
Temperature: 17.1 °C 15.8 °C 16.3 °C
Dew Point: 15.5 °C 14.3 °C 14.9 °C
Humidity: 94% 88% 92%
Wind Speed: 4.8km/h 0km/h 2.1km/h
Wind Gust: 8km/h - -
Wind- - West
Pressure: 1015.1 hPa 1014.4 hPa -
Precipitation: 0 mm    
Historical Graphs
 
 
Tabular Data for June 25, 2022
Time Temperature Dew Point Pressure Wind Wind Speed Wind Gust Humidity Rainfall Rate (Hourly) solar Conditions
00:10 17.1 °C 15.1 °C 1015.1 hPa Calm   4.8 km/h 88% 0 mm 0 W/m2
00:20 16.8 °C 14.8 °C 1015.1 hPa SW 3.2 km/h 4.8 km/h 88% 0 mm 0 W/m2
00:30 16.6 °C 14.6 °C 1015.1 hPa West 1.6 km/h 6.4 km/h 88% 0 mm 0 W/m2
00:40 16.4 °C 14.6 °C 1014.8 hPa West 1.6 km/h 4.8 km/h 89% 0 mm 0 W/m2
00:50 16.3 °C 14.7 °C 1014.8 hPa West 3.2 km/h 6.4 km/h 90% 0 mm 0 W/m2
01:00 16.3 °C 14.7 °C 1014.8 hPa WNW 1.6 km/h 6.4 km/h 90% 0 mm 0 W/m2
01:10 16.2 °C 14.6 °C 1014.8 hPa WNW 3.2 km/h 6.4 km/h 90% 0 mm 0 W/m2
01:20 16.1 °C 14.4 °C 1015.1 hPa SW 3.2 km/h 4.8 km/h 90% 0 mm 0 W/m2
01:30 15.8 °C 14.3 °C 1015.1 hPa WSW 3.2 km/h 8 km/h 91% 0 mm 0 W/m2
01:40 15.8 °C 14.3 °C 1014.8 hPa West 3.2 km/h 6.4 km/h 91% 0 mm 0 W/m2
01:50 15.8 °C 14.7 °C 1015.1 hPa West 3.2 km/h 6.4 km/h 93% 0 mm 0 W/m2
02:00 15.8 °C 14.7 °C 1015.1 hPa West 1.6 km/h 6.4 km/h 93% 0 mm 0 W/m2
02:10 15.9 °C 14.8 °C 1014.8 hPa West 1.6 km/h 3.2 km/h 93% 0 mm 0 W/m2
02:20 15.9 °C 14.8 °C 1015.1 hPa West 3.2 km/h 6.4 km/h 93% 0 mm 0 W/m2
02:30 16 °C 14.9 °C 1015.1 hPa WNW 1.6 km/h 8 km/h 93% 0 mm 0 W/m2
02:40 16.1 °C 14.8 °C 1014.8 hPa Calm   6.4 km/h 92% 0 mm 0 W/m2
02:50 16.3 °C 15.2 °C 1015.1 hPa Calm   4.8 km/h 93% 0 mm 0 W/m2
03:00 16.3 °C 14.8 °C 1015.1 hPa WNW 1.6 km/h 3.2 km/h 91% 0 mm 0 W/m2
03:10 16.3 °C 15.2 °C 1015.1 hPa WNW 3.2 km/h 4.8 km/h 93% 0 mm 0 W/m2
03:20 16.3 °C 15.2 °C 1014.8 hPa Calm   3.2 km/h 93% 0 mm 0 W/m2
03:30 16.4 °C 15.3 °C 1014.8 hPa West 1.6 km/h 3.2 km/h 93% 0 mm 0 W/m2
03:50 16.4 °C 15.3 °C 1014.4 hPa West 1.6 km/h 4.8 km/h 93% 0 mm 0 W/m2
04:10 16.5 °C 15.4 °C 1014.8 hPa West 3.2 km/h 8 km/h 93% 0 mm 0 W/m2
04:20 16.5 °C 15.4 °C 1014.8 hPa NW 1.6 km/h 4.8 km/h 93% 0 mm 0 W/m2
04:30 16.4 °C 15.4 °C 1014.8 hPa WSW 3.2 km/h 3.2 km/h 94% 0 mm 0 W/m2
04:40 16.4 °C 15.4 °C 1014.8 hPa WNW 1.6 km/h 4.8 km/h 94% 0 mm 0 W/m2
04:50 16.4 °C 15.4 °C 1014.8 hPa WNW 3.2 km/h 6.4 km/h 94% 0 mm 2 W/m2
05:00 16.4 °C 15.4 °C 1014.8 hPa West 4.8 km/h 8 km/h 94% 0 mm 4 W/m2
05:10 16.4 °C 15.5 °C 1015.1 hPa WNW 1.6 km/h 6.4 km/h 94% 0 mm 9 W/m2
Knjazevac, Serbia
Compliments of Weather Underground - 2 mb